Weather History for KAVL - December, 2008

Change the Weather History Date:

Monday, December 8, 2008

  Actual Average Record
Temperature  
Mean Temperature 32 °F 41 °F  
Max Temperature 45 °F 51 °F 75 °F (1956)
Min Temperature 19 °F 31 °F 12 °F (1977)
Degree Days  
Heating Degree Days 33 24  
Month to date heating degree days 257 186  
Since 1 July heating degree days 1276 1053  
Cooling Degree Days 0 0  
Month to date cooling degree days 0 0  
Year to date cooling degree days 875 863  
Moisture  
Dew Point 14 °F    
Average Humidity 55    
Maximum Humidity 84    
Minimum Humidity 25    
Precipitation  
Precipitation 0.00 in 0.12 in 1.91 in (1924)
Month to date precipitation T 1.04  
Year to date precipitation 30.89 43.02  
Snow  
Snow 0.00 in 0.00 in 2.00 in (1973)
Month to date snowfall T 0.1  
Since 1 July snowfall T 0.2  
Snow Depth -    
Sea Level Pressure  
Sea Level Pressure 30.32 in    
Wind  
Wind Speed 5 mph (SE)    
Max Wind Speed 13 mph    
Max Gust Speed 16 mph    
Visibility 10 miles    
Events      
T = Trace of Precipitation, MM = Missing Value Source: NWS Daily Summary

Daily Weather History Graph

Daily Weather History Graph

Search for Another Location

Airport or City:

Trip Planner

Search our weather history database for the weather conditions in past years. The results will help you decide how hot, cold, wet, or windy it might be!

Date:

Astronomy

Dec. 08, 2008 Rise Set
Actual Time 7:27 AM EST 5:17 PM EST
Civil Twilight 6:59 AM EST 5:45 PM EST
Nautical Twilight 6:27 AM EST 6:17 PM EST
Astronomical Twilight 5:56 AM EST 6:48 PM EST
Moon 1:57 PM EST (12/8) 2:43 AM EST (12/8)
Length of Visible Light 10h 46m
Length of Day
9h 50m
Waxing Gibbous, 79% of the Moon is Illuminated
Dec 8
Waxing Gibbous
Dec 12
Full
Dec 19
Last Quarter
Dec 27
New
Jan 4
First Quarter

Hourly Weather History & Observations

Time (EST) Temp. Windchill Dew Point Humidity Pressure Visibility Wind Dir Wind Speed Gust Speed Precip Events Conditions
12:54 AM 21.9 °F - 12.0 °F 66% 30.27 in 10.0 mi Calm Calm - N/A   Clear
1:54 AM 19.9 °F - 12.9 °F 74% 30.27 in 10.0 mi Calm Calm - N/A   Clear
2:54 AM 21.0 °F - 14.0 °F 74% 30.28 in 10.0 mi Calm Calm - N/A   Clear
3:54 AM 19.9 °F - 14.0 °F 78% 30.29 in 10.0 mi Calm Calm - N/A   Clear
4:54 AM 19.0 °F - 14.0 °F 81% 30.31 in 10.0 mi Calm Calm - N/A   Clear
5:54 AM 19.9 °F - 14.0 °F 78% 30.34 in 10.0 mi Calm Calm - N/A   Clear
6:54 AM 19.9 °F - 14.0 °F 78% 30.36 in 10.0 mi Calm Calm - N/A   Clear
7:54 AM 19.9 °F 14.9 °F 15.1 °F 81% 30.38 in 10.0 mi South 3.5 mph - N/A   Clear
8:54 AM 24.1 °F 19.7 °F 17.1 °F 75% 30.39 in 10.0 mi SSE 3.5 mph - N/A   Clear
9:54 AM 34.0 °F 28.8 °F 12.0 °F 40% 30.38 in 10.0 mi SSE 5.8 mph - N/A   Clear
10:54 AM 37.0 °F 32.4 °F 12.0 °F 36% 30.37 in 10.0 mi SSE 5.8 mph - N/A   Clear
11:54 AM 39.9 °F 35.1 °F 12.0 °F 32% 30.33 in 10.0 mi East 6.9 mph - N/A   Clear
12:54 PM 43.0 °F 39.5 °F 12.0 °F 28% 30.30 in 10.0 mi ESE 5.8 mph - N/A   Clear
1:54 PM 45.0 °F 41.2 °F 12.0 °F 26% 30.27 in 10.0 mi SE 6.9 mph - N/A   Clear
2:54 PM 45.0 °F 40.6 °F 10.9 °F 25% 30.27 in 10.0 mi SE 8.1 mph - N/A   Clear
3:54 PM 43.0 °F 37.7 °F 12.0 °F 28% 30.28 in 10.0 mi SE 9.2 mph - N/A   Clear
4:54 PM 42.1 °F 37.7 °F 12.9 °F 31% 30.30 in 10.0 mi Variable 6.9 mph - N/A   Clear
5:54 PM 39.9 °F 34.5 °F 14.0 °F 35% 30.32 in 10.0 mi SSE 8.1 mph - N/A   Clear
6:54 PM 37.9 °F 32.1 °F 15.1 °F 39% 30.34 in 10.0 mi SSE 8.1 mph - N/A   Clear
7:54 PM 37.0 °F 32.4 °F 15.1 °F 41% 30.35 in 10.0 mi SSE 5.8 mph - N/A   Clear
8:54 PM 37.9 °F 32.7 °F 15.1 °F 39% 30.34 in 10.0 mi SE 6.9 mph - N/A   Clear
9:54 PM 35.1 °F 29.3 °F 17.1 °F 48% 30.34 in 10.0 mi SSE 6.9 mph - N/A   Clear
10:54 PM 35.1 °F 27.9 °F 17.1 °F 48% 30.34 in 10.0 mi SSE 9.2 mph - N/A   Clear
11:54 PM 36.0 °F 33.3 °F 18.0 °F 48% 30.33 in 10.0 mi SE 3.5 mph - N/A   Overcast